Location: Eastchurch
(51.4000°N, 0.8667°E)
Time: 01:00:43
(UTC+00:00)

NOSS 2-1 (C) - Pass Details

Date: 19 January 2026
Orbit: 375 x 1683 km, 63.3° (Epoch: 18 February)

Event Time Altitude Azimuth Distance (km) Brightness Sun altitude
Rises 18:24:31 0° 313° (NW) 2,332 7.1 -18.3°
Reaches altitude 10° 18:26:23 10° 310° (NW) 1,539 6.1 -18.6°
Maximum altitude 18:29:40 64° 228° (SW) 556 3.5 -19.1°
Enters shadow 18:32:41 18° 150° (SSE) 1,472 5.3 -19.5°
